Погода в Рапкане

Узбекистан     40°21′06″N   70°39′35″E
темп.,
°C
ветер,
м/с
пор.,
м/с
влажн.,
%
обл.,
%
осадки,
мм/ч
давл.,
гПа
погр.,
м
28 сентября, вт
вт2823:00+17ю11430 0.0 101528
02:00+16з12470 0.0 101419
05:00+15зюз12500 0.0 101417
08:00+18з11400 0.0 1015187
11:00+23с11300 0.0 1013826
14:00+27сз12225 0.0 10111206
17:00+27зсз342281 0.0 1010667
20:00+22юз453099 0.0 101269
29 сентября, ср
ср2923:00+20ююз3333100 0.0 101235
02:00+18юз22380 0.0 101230
05:00+17з23400 0.0 101323
08:00+21зсз34320 0.0 1014345
11:00+25зсз552592 0.0 1014935
14:00+27зсз6620100 0.0 10121169
17:00+25з10122197 0.0 1012882
20:00+21зюз611260 0.0 1015231
30 сентября, чт
чт3023:00+19ююз44300 0.0 101545
02:00+18ююз33320 0.0 101633
05:00+16з22360 0.0 101724
08:00+19зсз23310 0.0 1018266
11:00+23сз32250 0.0 1017809
14:00+26зсз33200 0.0 10141049
17:00+26з67190 0.0 1013814
20:00+21зюз57262 0.0 1015111
1 октября, пт
пт123:00+19ююз44290 0.0 101547
02:00+17юз23320 0.0 101634
05:00+15зсз233797 0.0 101625
08:00+18з45333 0.0 1018390
11:00+22зсз44260 0.0 1016732
14:00+25зсз88203 0.0 10131003
17:00+23з8122222 0.0 1013723
20:00+20юз61227100 0.0 1015445
2 октября, сб
сб223:00+19зюз352944 0.0 1015120
02:00+18зюз453199 0.0 1015110
05:00+16з343656 0.0 101766
08:00+17з5103281 0.0 1018523
11:00+21зсз91025100 0.0 1017936
14:00+22з9122485 0.0 1015842
17:00+19з11142913 0.0 1018878
20:00+16юз593599 0.0 1020269